Weather History for Malmstrom AFB, MT

Change the Weather History Date:

Thursday, November 29, 2012

  Actual Average (KGTF) Record (KGTF)
Temperature  
Mean Temperature 38 °F 28 °F  
Max Temperature 50 °F 37 °F 64 °F (1932)
Min Temperature 26 °F 19 °F -22 °F (1896)
Degree Days  
Heating Degree Days 27 37  
Month to date heating degree days 913  
Since 1 July heating degree days 1933  
Cooling Degree Days 0 0  
Month to date cooling degree days 0  
Year to date cooling degree days 298  
Moisture  
Dew Point 29 °F    
Average Humidity 57    
Maximum Humidity 93    
Minimum Humidity 41    
Precipitation  
Precipitation 0.00 in 0.02 in 0.58 in (1919)
Month to date precipitation 0.57  
Year to date precipitation 14.18  
Snow  
Snow 0.00 in 0.30 in 5.50 in (1942)
Month to date snowfall 7.8  
Since 1 July snowfall 13.4  
Since 1 September snowfall 13.1  
Snow Depth -    
Sea Level Pressure  
Sea Level Pressure 29.88 in    
Wind  
Wind Speed 10 mph (South)    
Max Wind Speed 22 mph    
Max Gust Speed 30 mph    
Visibility 10 miles    
Events      
T = Trace of Precipitation, MM = Missing Value Source: NWS Daily Summary

Daily Weather History Graph

Daily Weather History Graph

Search for Another Location

Airport:

Trip Planner

Search our weather history database for the weather conditions in past years. The results will help you decide how hot, cold, wet, or windy it might be!

Date:

Astronomy

Nov. 29, 2012 Rise Set
Actual Time 7:49 AM MST 4:36 PM MST
Civil Twilight 7:14 AM MST 5:11 PM MST
Nautical Twilight 6:36 AM MST 5:49 PM MST
Astronomical Twilight 5:59 AM MST 6:26 PM MST
Moon 5:41 PM MST (11/29) 8:39 AM MST (11/29)
Length of Visible Light 9h 56m
Length of Day
8h 46m
Full, 99% of the Moon is Illuminated
Nov 29
Full
Dec 6
Last Quarter
Dec 13
New
Dec 19
First Quarter
Dec 28
Full

Hourly Weather History & Observations

Time (MST) Temp. Windchill Dew Point Humidity Pressure Visibility Wind Dir Wind Speed Gust Speed Precip Events Conditions
12:56 AM 26.1 °F - 24.1 °F 92% 29.92 in 5.0 mi Calm Calm - N/A   Overcast
1:51 AM 26.6 °F - 24.8 °F 93% 29.78 in 8.0 mi Calm Calm - N/A   Overcast
1:56 AM 27.0 °F - 24.1 °F 89% 29.91 in 8.0 mi Calm Calm - N/A   Overcast
2:56 AM 28.0 °F - 25.0 °F 88% 29.91 in 8.0 mi Calm Calm - N/A   Overcast
3:56 AM 42.1 °F 34.2 °F 32.0 °F 67% 29.89 in 10.0 mi South 16.1 mph - N/A   Overcast
5:56 AM 43.0 °F 35.7 °F 33.1 °F 68% 29.91 in 10.0 mi South 15.0 mph - N/A   Mostly Cloudy
6:56 AM 41.0 °F 33.5 °F 32.0 °F 70% 29.93 in 10.0 mi South 13.8 mph - N/A   Clear
7:56 AM 45.0 °F 37.1 °F 32.0 °F 60% 29.94 in 10.0 mi SSW 19.6 mph - N/A   Clear
8:56 AM 45.0 °F 37.9 °F 32.0 °F 60% 29.94 in 10.0 mi SSW 16.1 mph 23.0 mph N/A   Clear
9:56 AM 46.9 °F - 33.1 °F 59% 29.94 in 10.0 mi SSW 18.4 mph - N/A   Clear
10:56 AM 48.9 °F - 32.0 °F 52% 29.95 in 10.0 mi SSW 21.9 mph 29.9 mph N/A   Clear
11:56 AM 50.0 °F - 32.0 °F 50% 29.94 in 10.0 mi SSW 17.3 mph 26.5 mph N/A   Clear
12:56 PM 50.0 °F - 30.0 °F 46% 29.92 in 10.0 mi SSW 21.9 mph 28.8 mph N/A   Clear
1:56 PM 50.0 °F - 30.0 °F 46% 29.92 in 10.0 mi SSW 16.1 mph - N/A   Clear
2:56 PM 50.0 °F - 32.0 °F 50% 29.91 in 10.0 mi South 6.9 mph - N/A   Clear
3:56 PM 50.0 °F - 27.0 °F 41% 29.87 in 10.0 mi SSW 15.0 mph - N/A   Clear
4:56 PM 46.0 °F 41.4 °F 26.1 °F 46% 29.87 in 10.0 mi SE 9.2 mph - N/A   Clear
5:21 PM 48.2 °F - 26.6 °F 43% 29.75 in 10.0 mi SSW 18.4 mph - N/A   Clear
5:56 PM 46.0 °F 39.3 °F 27.0 °F 47% 29.88 in 10.0 mi South 16.1 mph - N/A   Clear
6:56 PM 46.0 °F 40.2 °F 27.0 °F 47% 29.87 in 10.0 mi South 12.7 mph - N/A   Clear
7:56 PM 46.0 °F 39.6 °F 28.0 °F 50% 29.84 in 10.0 mi South 15.0 mph - N/A   Clear
8:56 PM 48.9 °F - 26.1 °F 41% 29.82 in 10.0 mi South 19.6 mph - N/A   Clear
9:56 PM 48.9 °F - 26.1 °F 41% 29.81 in 10.0 mi South 16.1 mph 24.2 mph N/A   Clear
10:56 PM 48.0 °F - 27.0 °F 44% 29.80 in 10.0 mi South 17.3 mph - N/A   Clear
11:56 PM 48.0 °F - 28.0 °F 46% 29.77 in 10.0 mi South 21.9 mph - N/A   Clear